�N����,����,�~����,�C��,���x,�C��,����,���ϕ���,�ő�u�ԕ���,�ő厞����,���˗�,�I�_���x,�n�����x,�ő啗���N��,DTYPE
"23/08/31","00:10",0.0,27.9,76.4,1008.3,147.4,0.5,1.9,102.4,0.00,23.4,26.2,"00:09:36",1
"23/08/31","00:20",0.0,27.9,76.8,1008.1,150.3,0.8,2.5,122.9,0.00,23.5,26.1,"00:11:36",1
"23/08/31","00:30",0.0,27.9,77.1,1008.6,151.3,1.0,2.0,130.8,0.00,23.6,26.4,"00:21:44",1
"23/08/31","00:40",0.0,28.0,77.1,1008.1,148.9,1.1,2.8,151.5,0.00,23.7,26.1,"00:34:00",1
"23/08/31","00:50",0.0,27.9,77.5,1008.6,276.9,0.3,0.8,336.0,0.00,23.6,26.1,"00:43:52",1
"23/08/31","01:00",0.0,27.9,78.0,1008.6,97.4,1.0,3.2,36.0,0.00,23.7,26.2,"00:57:12",1
"23/08/31","01:10",0.0,28.1,77.2,1008.3,132.7,1.3,4.1,104.8,0.00,23.8,26.1,"01:03:04",1
"23/08/31","01:20",0.0,28.0,76.9,1008.3,148.7,1.0,3.1,102.9,0.00,23.6,26.1,"01:19:44",1
"23/08/31","01:30",0.0,28.0,76.7,1008.3,123.9,0.8,2.0,109.2,0.00,23.6,26.1,"01:22:56",1
"23/08/31","01:40",0.0,27.9,76.7,1007.8,142.5,0.7,1.9,106.0,0.00,23.5,26.2,"01:32:16",1
"23/08/31","01:50",0.0,27.8,76.8,1008.3,175.4,0.6,1.2,142.5,0.00,23.4,26.1,"01:47:20",1
"23/08/31","02:00",0.0,27.7,76.9,1008.1,198.0,0.5,1.6,164.8,0.00,23.3,26.1,"01:57:20",1
"23/08/31","02:10",0.0,27.4,76.6,1008.3,205.0,0.3,1.6,67.9,0.00,23.0,26.4,"02:09:20",1
"23/08/31","02:20",0.0,27.6,75.7,1007.8,118.2,0.7,2.0,188.0,0.00,23.0,26.1,"02:15:28",1
"23/08/31","02:30",0.0,27.7,75.0,1008.1,108.8,0.6,2.1,148.1,0.00,22.9,26.2,"02:20:08",1
"23/08/31","02:40",0.0,27.8,75.1,1007.8,151.1,1.1,2.4,107.8,0.00,23.0,26.1,"02:30:16",1
"23/08/31","02:50",0.0,27.7,75.4,1008.3,156.6,0.8,1.9,145.2,0.00,23.0,26.1,"02:40:08",1
"23/08/31","03:00",0.0,27.6,75.9,1007.8,345.2,0.3,1.0,86.4,0.00,23.0,26.2,"02:50:08",1
"23/08/31","03:10",0.0,27.4,77.1,1008.1,13.6,0.5,1.3,350.6,0.00,23.1,26.0,"03:02:08",1
"23/08/31","03:20",0.0,27.1,78.2,1008.1,57.5,0.6,1.9,97.9,0.00,23.0,26.1,"03:18:08",1
"23/08/31","03:30",0.0,27.4,77.7,1007.8,141.5,0.7,2.1,126.6,0.00,23.2,26.2,"03:21:52",1
"23/08/31","03:40",0.0,27.4,77.7,1007.6,121.2,0.7,2.4,123.1,0.00,23.2,26.1,"03:33:04",1
"23/08/31","03:50",0.0,27.4,77.5,1007.8,123.9,1.0,3.2,84.7,0.00,23.2,26.2,"03:41:36",1
"23/08/31","04:00",0.0,27.4,77.9,1007.8,80.7,0.5,1.9,122.9,0.00,23.2,25.8,"03:52:40",1
"23/08/31","04:10",0.0,27.2,78.3,1007.8,78.1,0.5,1.3,65.1,0.00,23.1,26.0,"04:01:04",1
"23/08/31","04:20",0.0,27.2,78.8,1007.8,94.3,0.6,1.7,117.8,0.00,23.2,25.9,"04:18:24",1
"23/08/31","04:30",0.0,27.1,79.0,1008.3,67.9,0.5,1.2,113.3,0.00,23.2,25.9,"04:21:12",1
"23/08/31","04:40",0.0,27.2,78.9,1008.3,85.5,0.6,1.8,50.2,0.00,23.3,25.9,"04:35:44",1
"23/08/31","04:50",0.0,27.1,78.9,1008.1,38.5,0.5,1.2,314.3,0.00,23.2,26.0,"04:41:44",1
"23/08/31","05:00",0.0,27.1,79.0,1008.1,25.1,0.5,1.4,97.1,0.00,23.2,25.9,"04:57:12",1
"23/08/31","05:10",0.0,27.1,78.8,1008.1,36.4,0.6,1.8,95.7,0.00,23.1,26.0,"05:02:48",1
"23/08/31","05:20",0.0,27.2,78.7,1008.8,0.7,1.0,1.9,160.4,0.00,23.2,26.0,"05:12:16",1
"23/08/31","05:30",0.0,26.8,79.6,1008.1,312.5,0.5,1.0,337.8,0.00,23.0,26.2,"05:22:24",1
"23/08/31","05:40",0.0,26.5,80.5,1008.1,273.8,0.6,1.9,166.2,0.00,22.9,26.0,"05:38:40",1
"23/08/31","05:50",0.0,26.8,80.3,1008.3,133.0,0.7,2.5,178.1,0.00,23.2,26.0,"05:43:44",1
"23/08/31","06:00",0.0,27.1,79.3,1008.3,152.5,1.0,2.2,153.6,0.00,23.2,25.9,"05:58:56",1
"23/08/31","06:10",0.0,27.5,78.3,1008.3,99.9,0.6,2.2,109.4,0.01,23.4,26.1,"06:02:56",1
"23/08/31","06:20",0.0,27.6,78.0,1008.3,155.5,0.5,1.4,128.8,0.03,23.5,26.0,"06:17:28",1
"23/08/31","06:30",0.0,27.7,77.6,1008.1,109.3,0.7,2.1,87.6,0.04,23.5,25.6,"06:29:12",1
"23/08/31","06:40",0.0,28.0,76.9,1007.8,109.8,0.7,2.0,99.4,0.05,23.6,25.8,"06:30:56",1
"23/08/31","06:50",0.0,28.0,76.1,1008.1,125.6,0.8,2.1,100.7,0.05,23.4,25.7,"06:49:12",1
"23/08/31","07:00",0.0,28.3,75.7,1007.8,117.7,1.0,2.7,114.9,0.06,23.6,25.7,"06:54:08",1
"23/08/31","07:10",0.0,28.6,74.7,1008.1,130.5,1.0,3.3,146.1,0.08,23.7,26.0,"07:05:52",1
"23/08/31","07:20",0.0,28.6,73.4,1007.8,135.4,1.2,2.5,120.6,0.09,23.4,25.7,"07:15:28",1
"23/08/31","07:30",0.0,29.0,72.6,1007.6,128.4,1.1,2.6,106.9,0.14,23.6,25.9,"07:28:48",1
"23/08/31","07:40",0.0,29.0,71.5,1007.6,156.1,1.3,2.8,155.4,0.11,23.4,25.7,"07:35:04",1
"23/08/31","07:50",0.0,28.8,72.1,1007.8,151.1,1.5,2.9,169.7,0.09,23.3,26.0,"07:48:16",1
"23/08/31","08:00",0.0,28.7,72.6,1008.1,141.5,1.3,2.9,198.5,0.11,23.3,25.9,"07:58:24",1
"23/08/31","08:10",0.0,28.8,72.7,1008.3,132.2,1.3,3.6,108.4,0.11,23.4,26.0,"08:01:12",1
"23/08/31","08:20",0.0,29.0,72.5,1008.3,127.4,1.2,3.3,130.1,0.11,23.6,25.9,"08:15:36",1
"23/08/31","08:30",0.0,29.2,72.6,1008.3,134.7,1.2,3.2,174.2,0.13,23.8,26.0,"08:22:32",1
"23/08/31","08:40",0.0,29.1,71.1,1009.0,127.3,1.3,3.5,153.7,0.12,23.4,25.8,"08:36:40",1
"23/08/31","08:50",0.0,29.1,71.5,1008.6,132.2,1.2,2.8,137.1,0.10,23.5,25.9,"08:43:20",1
"23/08/31","09:00",0.0,29.1,71.8,1008.6,134.0,1.3,2.7,161.5,0.07,23.5,25.7,"08:50:56",1
"23/08/31","09:10",0.0,29.0,72.3,1008.6,108.2,1.1,3.2,175.6,0.07,23.5,26.0,"09:05:28",1
"23/08/31","09:20",0.0,29.0,72.2,1007.8,138.8,1.1,2.8,107.4,0.07,23.5,26.2,"09:10:16",1
"23/08/31","09:30",0.0,29.3,72.6,1007.8,132.0,1.1,2.0,178.6,0.10,23.9,26.0,"09:20:32",1
"23/08/31","09:40",0.0,29.8,71.5,1008.6,111.5,1.1,2.4,100.9,0.15,24.1,26.1,"09:34:40",1
"23/08/31","09:50",0.0,30.0,69.6,1008.6,106.6,1.2,2.6,24.9,0.14,23.9,25.8,"09:41:36",1
"23/08/31","10:00",0.0,30.0,69.1,1008.6,121.8,1.2,3.4,76.7,0.12,23.8,26.0,"09:53:44",1
"23/08/31","10:10",0.0,29.9,68.2,1008.6,149.7,1.7,4.9,98.2,0.14,23.4,26.0,"10:05:04",1
"23/08/31","10:20",0.0,30.5,67.8,1009.0,146.4,1.6,3.1,140.4,0.21,23.9,26.1,"10:10:48",1
"23/08/31","10:30",0.0,30.8,66.5,1009.0,134.6,1.6,3.7,124.3,0.26,23.9,26.0,"10:20:02",1
"23/08/31","10:40",0.0,31.5,65.4,1009.3,144.7,1.8,3.9,131.9,0.35,24.3,26.1,"10:30:08",1
"23/08/31","10:50",0.0,32.2,62.2,1009.7,144.2,2.1,4.4,157.3,0.45,24.1,26.2,"10:47:44",1
"23/08/31","11:00",0.0,31.9,61.8,1010.0,158.2,2.5,4.9,161.5,0.34,23.7,26.2,"10:50:02",1
"23/08/31","11:10",0.0,31.4,62.1,1010.0,155.6,2.3,4.0,166.4,0.27,23.3,26.1,"11:02:40",1
"23/08/31","11:20",0.0,32.0,61.1,1010.2,156.5,2.0,4.2,179.0,0.34,23.6,26.3,"11:13:12",1
"23/08/31","11:30",0.0,32.9,59.5,1010.2,155.0,2.1,3.9,174.8,0.52,24.0,26.2,"11:22:08",1
"23/08/31","11:40",0.0,32.5,56.3,1010.4,165.0,2.1,4.9,208.6,0.35,22.7,26.4,"11:38:08",1
"23/08/31","11:50",0.0,32.6,59.6,1010.2,173.7,2.5,5.1,223.4,0.35,23.8,26.5,"11:43:04",1
"23/08/31","12:00",0.0,33.5,56.8,1010.0,167.8,2.1,4.7,139.1,0.46,23.8,26.4,"11:51:28",1
"23/08/31","12:10",0.0,33.7,55.0,1010.7,180.2,2.6,5.7,225.2,0.50,23.4,26.6,"12:07:28",1
"23/08/31","12:20",0.0,33.3,54.5,1010.4,160.6,2.3,5.9,199.4,0.37,22.9,26.5,"12:10:32",1
"23/08/31","12:30",0.0,32.8,54.9,1010.2,168.6,2.6,5.2,194.4,0.31,22.6,26.7,"12:23:28",1
"23/08/31","12:40",0.0,33.5,54.3,1010.4,162.9,2.2,4.7,212.1,0.47,23.0,26.7,"12:34:56",1
"23/08/31","12:50",0.0,32.9,56.8,1009.7,154.2,2.2,5.7,192.8,0.29,23.2,26.6,"12:40:48",1
"23/08/31","13:00",0.0,32.9,58.2,1009.7,159.8,2.0,4.2,163.1,0.33,23.6,26.8,"12:54:48",1
"23/08/31","13:10",0.0,32.8,56.5,1009.7,151.8,1.8,3.9,173.4,0.25,23.1,26.8,"13:09:20",1
"23/08/31","13:20",0.0,32.1,58.7,1008.8,154.9,1.7,3.6,151.0,0.18,23.0,26.7,"13:17:36",1
"23/08/31","13:30",0.0,32.0,59.7,1009.0,130.6,1.6,3.3,136.4,0.17,23.2,26.9,"13:26:16",1
"23/08/31","13:40",0.0,32.4,60.0,1009.0,143.2,2.0,4.5,135.9,0.25,23.7,27.0,"13:32:00",1
"23/08/31","13:50",0.0,32.7,59.9,1008.8,137.3,1.5,3.1,155.8,0.21,23.9,27.1,"13:48:40",1
"23/08/31","14:00",0.0,32.3,59.3,1009.0,144.8,1.7,3.9,145.2,0.20,23.4,26.9,"13:54:00",1
"23/08/31","14:10",0.0,32.1,59.5,1009.0,133.7,1.7,4.2,147.6,0.18,23.3,26.9,"14:00:56",1
"23/08/31","14:20",0.0,31.9,59.3,1008.8,132.6,1.7,3.7,74.7,0.13,23.0,26.9,"14:16:56",1
"23/08/31","14:30",0.0,31.9,59.7,1008.3,127.3,1.5,3.5,151.3,0.15,23.1,26.9,"14:21:20",1
"23/08/31","14:40",0.0,31.9,58.9,1007.8,132.8,1.6,4.3,153.0,0.15,22.9,27.2,"14:30:16",1
"23/08/31","14:50",0.0,31.8,57.6,1008.3,112.4,1.7,4.0,120.8,0.12,22.4,26.9,"14:45:44",1
"23/08/31","15:00",0.0,31.8,57.9,1008.3,123.5,1.5,2.9,152.6,0.13,22.5,27.1,"14:55:44",1
"23/08/31","15:10",0.0,31.9,57.2,1008.1,142.7,1.7,3.7,120.8,0.16,22.4,26.7,"15:09:36",1
"23/08/31","15:20",0.0,32.7,58.1,1007.8,143.5,1.3,3.1,119.5,0.25,23.4,27.1,"15:12:08",1
"23/08/31","15:30",0.0,33.8,53.8,1008.8,163.3,1.6,3.4,183.3,0.34,23.2,27.0,"15:24:56",1
"23/08/31","15:40",0.0,34.0,52.2,1009.0,137.3,1.6,2.8,168.4,0.28,22.9,27.0,"15:30:24",1
"23/08/31","15:50",0.0,32.8,54.8,1009.3,126.3,1.3,3.6,148.2,0.12,22.5,27.0,"15:40:48",1
"23/08/31","16:00",0.0,32.1,56.7,1008.8,144.0,1.7,3.7,126.8,0.09,22.5,27.0,"15:58:00",1
"23/08/31","16:10",0.0,32.1,57.0,1008.6,124.6,1.5,3.4,122.0,0.11,22.5,27.2,"16:02:40",1
"23/08/31","16:20",0.0,31.8,58.2,1008.1,126.9,1.7,3.5,114.7,0.07,22.6,27.3,"16:18:56",1
"23/08/31","16:30",0.0,31.3,59.1,1008.3,150.6,2.0,3.7,132.5,0.06,22.4,27.2,"16:28:16",1
"23/08/31","16:40",0.0,31.3,59.9,1008.1,156.3,1.8,3.7,177.6,0.05,22.6,27.0,"16:34:48",1
"23/08/31","16:50",0.0,31.1,60.1,1007.6,161.4,1.8,4.0,157.1,0.03,22.5,27.0,"16:44:24",1
"23/08/31","17:00",0.0,31.0,60.4,1007.4,154.4,2.0,4.1,116.5,0.03,22.5,27.0,"16:57:44",1
"23/08/31","17:10",0.0,30.8,60.7,1007.6,155.5,1.7,3.4,161.4,0.03,22.4,27.1,"17:00:32",1
"23/08/31","17:20",0.0,30.8,60.7,1007.1,168.2,2.0,3.2,174.4,0.03,22.4,27.0,"17:17:52",1
"23/08/31","17:30",0.0,30.6,61.7,1007.6,140.0,1.2,2.7,151.3,0.03,22.4,26.9,"17:25:28",1
"23/08/31","17:40",0.0,30.5,61.8,1007.6,147.3,1.3,2.8,129.2,0.03,22.4,27.0,"17:37:20",1
"23/08/31","17:50",0.0,30.5,61.5,1007.4,158.2,1.3,2.8,181.1,0.03,22.3,26.9,"17:46:56",1
"23/08/31","18:00",0.0,30.4,61.9,1007.6,166.7,1.6,3.5,201.0,0.02,22.3,26.9,"17:52:16",1
"23/08/31","18:10",0.0,30.2,62.3,1007.6,144.9,1.3,3.4,135.9,0.01,22.2,26.9,"18:09:28",1
"23/08/31","18:20",0.0,30.1,63.0,1007.4,139.9,1.6,3.4,130.3,0.00,22.3,26.9,"18:10:56",1
"23/08/31","18:30",0.0,29.8,63.9,1006.7,143.4,1.1,2.5,118.6,0.00,22.3,26.8,"18:22:48",1
"23/08/31","18:40",0.0,29.5,64.7,1006.9,137.6,1.2,2.9,130.4,0.00,22.2,26.7,"18:38:16",1
"23/08/31","18:50",0.0,29.6,65.0,1007.4,141.2,1.7,4.1,132.0,0.00,22.4,26.9,"18:46:00",1
"23/08/31","19:00",0.0,29.5,65.4,1007.1,153.0,1.8,3.4,136.2,0.00,22.4,26.7,"18:59:28",1
"23/08/31","19:10",0.0,29.4,65.9,1007.8,173.3,1.7,3.5,208.9,0.00,22.4,26.6,"19:00:56",1
"23/08/31","19:20",0.0,29.3,66.4,1008.1,159.6,1.7,4.1,161.3,0.00,22.4,26.8,"19:11:36",1
"23/08/31","19:30",0.0,29.2,66.9,1008.1,170.3,1.5,2.9,186.6,0.00,22.5,26.7,"19:28:16",1
"23/08/31","19:40",0.0,29.1,67.3,1008.1,177.7,1.7,3.2,181.4,0.00,22.5,26.6,"19:37:12",1
"23/08/31","19:50",0.0,28.9,67.9,1008.6,173.0,1.3,3.2,195.5,0.00,22.4,26.5,"19:40:32",1
"23/08/31","20:00",0.0,28.8,68.4,1008.6,178.9,1.1,2.4,187.1,0.00,22.4,26.6,"19:57:12",1
"23/08/31","20:10",0.0,28.7,69.1,1008.3,179.3,1.2,2.1,143.2,0.00,22.5,26.6,"20:08:24",1
"23/08/31","20:20",0.0,28.6,69.8,1008.6,172.8,1.2,2.7,142.6,0.00,22.6,26.7,"20:13:28",1
"23/08/31","20:30",0.0,28.4,70.7,1008.6,177.5,1.1,2.6,206.1,0.00,22.6,26.6,"20:22:40",1
"23/08/31","20:40",0.0,28.3,71.4,1008.6,180.9,1.2,2.7,167.6,0.00,22.7,26.6,"20:33:12",1
"23/08/31","20:50",0.0,28.1,72.1,1008.8,191.4,0.8,2.2,202.2,0.00,22.6,26.5,"20:41:12",1
"23/08/31","21:00",0.0,27.6,73.6,1008.8,324.9,1.0,1.7,352.4,0.00,22.5,26.2,"20:55:36",1
"23/08/31","21:10",0.0,27.0,75.7,1009.3,348.4,0.8,1.4,340.4,0.00,22.4,26.4,"21:08:00",1
"23/08/31","21:20",0.0,26.6,77.6,1009.3,350.1,0.8,1.2,355.7,0.00,22.4,26.5,"21:10:32",1
"23/08/31","21:30",0.0,26.2,79.5,1009.0,348.6,1.0,1.7,344.6,0.00,22.4,26.5,"21:21:28",1
"23/08/31","21:40",0.0,26.0,80.8,1009.5,349.2,1.1,1.6,342.1,0.00,22.5,26.4,"21:35:52",1
"23/08/31","21:50",0.0,25.8,81.7,1009.3,333.5,1.0,2.4,345.5,0.00,22.5,26.2,"21:40:24",1
"23/08/31","22:00",0.0,25.6,82.1,1009.0,309.4,0.7,1.3,327.2,0.00,22.4,26.3,"21:57:36",1
"23/08/31","22:10",0.0,25.6,82.6,1009.7,329.1,0.8,1.4,344.7,0.00,22.5,26.4,"22:02:24",1
"23/08/31","22:20",0.0,25.4,83.0,1009.5,342.6,0.6,1.4,336.4,0.00,22.3,26.2,"22:14:48",1
"23/08/31","22:30",0.0,25.2,83.8,1009.7,291.6,0.8,1.8,315.0,0.00,22.3,26.1,"22:29:20",1
"23/08/31","22:40",0.0,25.1,84.3,1009.5,312.0,0.8,1.4,315.7,0.00,22.3,26.2,"22:39:20",1
"23/08/31","22:50",0.0,25.0,84.6,1009.5,276.6,0.7,1.3,305.0,0.00,22.3,26.3,"22:40:40",1
"23/08/31","23:00",0.0,24.9,85.1,1009.5,326.6,0.8,1.6,343.3,0.00,22.3,26.2,"22:54:56",1
"23/08/31","23:10",0.0,24.8,85.5,1009.7,317.9,0.5,1.1,356.7,0.00,22.2,25.9,"23:01:04",1
"23/08/31","23:20",0.0,24.6,86.1,1009.7,320.5,0.8,1.3,323.3,0.00,22.2,26.1,"23:15:04",1
"23/08/31","23:30",0.0,24.4,86.6,1009.7,309.6,0.6,1.1,327.3,0.00,22.1,25.9,"23:20:08",1
"23/08/31","23:40",0.0,24.4,87.1,1010.0,282.4,0.6,1.7,308.4,0.00,22.2,26.0,"23:39:52",1
"23/08/31","23:50",0.0,24.5,87.2,1009.7,332.8,1.0,1.4,317.5,0.00,22.3,26.1,"23:44:08",1
"23/08/31","24:00",0.0,24.3,87.4,1009.7,325.4,0.7,1.1,337.4,0.00,22.1,26.0,"23:52:24",1
